CKK756 WSSS-RCTP

Flight info

Callsign CKK756
Flight time N/A
Altitude 35000
Route VMR9B VMR M771 DUDIS/K0898F330 M771 DOSUT/N0478F330 M771 DULOP DCT ENVAR M750 TONGA TONGA1A
Aircraft B77L/H-SDE1E2E3FGHIJ2J3J4J5M1RWXY/LB1D1

Departure

Time N/A
Airport Singapore Changi Airport (WSSS)

Arrival

Time 2026-05-06 07:02
Airport Taiwan Taoyuan International Airport (RCTP)
Time Latitude Longitude Altitude Speed Heading
2026-05-06 05:55 19.44767 115.47688 34906 ft 497 kts 34°
2026-05-06 05:55 19.50310 115.52006 34906 ft 497 kts 34°
2026-05-06 05:56 19.55892 115.56358 34906 ft 497 kts 34°
2026-05-06 05:56 19.61460 115.60703 34905 ft 497 kts 34°
2026-05-06 05:57 19.67033 115.65055 34909 ft 497 kts 34°
2026-05-06 05:57 19.72605 115.69411 34901 ft 497 kts 34°
2026-05-06 05:58 19.78144 115.73744 34901 ft 497 kts 34°
2026-05-06 05:58 19.83706 115.78099 34903 ft 497 kts 34°
2026-05-06 05:59 19.89273 115.82462 34905 ft 497 kts 33°
2026-05-06 05:59 19.94838 115.86828 34916 ft 497 kts 33°
2026-05-06 06:00 20.00358 115.91162 34902 ft 497 kts 33°
2026-05-06 06:00 20.05914 115.95528 34915 ft 496 kts 33°
2026-05-06 06:01 20.11475 115.99903 34918 ft 497 kts 33°
2026-05-06 06:01 20.17043 116.04286 34911 ft 497 kts 33°
2026-05-06 06:02 20.22568 116.08640 34913 ft 497 kts 33°
2026-05-06 06:02 20.28125 116.13023 34916 ft 497 kts 33°
2026-05-06 06:03 20.33688 116.17415 34914 ft 497 kts 33°
2026-05-06 06:03 20.39246 116.21806 34911 ft 497 kts 33°
2026-05-06 06:04 20.44805 116.26203 34911 ft 498 kts 33°
2026-05-06 06:04 20.50371 116.30608 34914 ft 498 kts 33°
2026-05-06 06:05 20.55905 116.34993 34913 ft 498 kts 33°
2026-05-06 06:05 20.61468 116.39405 34915 ft 498 kts 33°
2026-05-06 06:06 20.67005 116.43801 34918 ft 497 kts 33°
2026-05-06 06:06 20.72552 116.48208 34918 ft 497 kts 33°
2026-05-06 06:07 20.78115 116.52633 34919 ft 497 kts 33°
2026-05-06 06:07 20.83665 116.57050 34922 ft 497 kts 33°
2026-05-06 06:08 20.89218 116.61475 34923 ft 497 kts 33°
2026-05-06 06:08 20.94746 116.65884 34921 ft 497 kts 33°
2026-05-06 06:09 21.00295 116.70314 34926 ft 497 kts 33°
2026-05-06 06:09 21.05830 116.74737 34925 ft 497 kts 33°
2026-05-06 06:10 21.11345 116.79147 34924 ft 497 kts 33°
2026-05-06 06:10 21.16888 116.83585 34929 ft 497 kts 33°
2026-05-06 06:11 21.22428 116.88025 34926 ft 497 kts 33°
2026-05-06 06:11 21.27965 116.92466 34927 ft 496 kts 33°
2026-05-06 06:12 21.33462 116.96880 34927 ft 496 kts 33°
2026-05-06 06:12 21.38993 117.01325 34932 ft 496 kts 33°
2026-05-06 06:13 21.44520 117.05771 34933 ft 496 kts 33°
2026-05-06 06:13 21.50044 117.10219 34932 ft 496 kts 33°
2026-05-06 06:14 21.55534 117.14645 34934 ft 495 kts 33°
2026-05-06 06:14 21.61052 117.19097 34938 ft 495 kts 33°
2026-05-06 06:15 21.66578 117.23560 34940 ft 495 kts 33°
2026-05-06 06:15 21.72045 117.27980 34936 ft 495 kts 33°
2026-05-06 06:16 21.77552 117.32436 34938 ft 494 kts 33°
2026-05-06 06:16 21.83057 117.36895 34939 ft 494 kts 33°
2026-05-06 06:17 21.88514 117.41321 34938 ft 494 kts 33°
2026-05-06 06:17 21.94003 117.45776 34944 ft 493 kts 33°
2026-05-06 06:18 21.99096 117.50772 34946 ft 499 kts 45°
2026-05-06 06:18 22.03224 117.56824 34949 ft 504 kts 55°
2026-05-06 06:19 22.06833 117.63319 34949 ft 504 kts 56°
2026-05-06 06:19 22.10402 117.69767 34936 ft 504 kts 56°
2026-05-06 06:20 22.14037 117.76231 34945 ft 504 kts 55°
2026-05-06 06:20 22.17693 117.82701 34943 ft 504 kts 55°
2026-05-06 06:21 22.21337 117.89163 34944 ft 504 kts 55°
2026-05-06 06:21 22.24960 117.95601 34942 ft 504 kts 55°
2026-05-06 06:22 22.28614 118.02079 34950 ft 504 kts 54°
2026-05-06 06:22 22.32363 118.08474 34946 ft 503 kts 53°
2026-05-06 06:23 22.36109 118.14833 34951 ft 503 kts 53°
2026-05-06 06:23 22.39845 118.21229 34944 ft 503 kts 54°
2026-05-06 06:24 22.43532 118.27674 34955 ft 504 kts 54°
2026-05-06 06:24 22.47179 118.34152 34938 ft 504 kts 54°
2026-05-06 06:25 22.50806 118.40582 34940 ft 504 kts 54°
2026-05-06 06:26 22.56297 118.50304 34943 ft 504 kts 54°
2026-05-06 06:26 22.59970 118.56775 34943 ft 504 kts 54°
2026-05-06 06:27 22.63035 118.62135 34947 ft 504 kts 54°
2026-05-06 06:27 22.67330 118.69658 34942 ft 505 kts 54°
2026-05-06 06:28 22.71021 118.76142 34943 ft 505 kts 54°
2026-05-06 06:28 22.74089 118.81543 34946 ft 506 kts 54°
2026-05-06 06:29 22.77774 118.88037 34947 ft 506 kts 54°
2026-05-06 06:29 22.81460 118.94541 34945 ft 506 kts 54°
2026-05-06 06:30 22.85150 119.01058 34947 ft 507 kts 54°
2026-05-06 06:30 22.88812 119.07534 34940 ft 507 kts 54°
2026-05-06 06:31 22.92504 119.14073 34947 ft 507 kts 54°
2026-05-06 06:31 22.96168 119.20570 34941 ft 507 kts 54°
2026-05-06 06:32 22.99845 119.27097 34945 ft 507 kts 54°
2026-05-06 06:32 23.03522 119.33634 34941 ft 507 kts 54°
2026-05-06 06:33 23.07190 119.40164 34943 ft 506 kts 55°
2026-05-06 06:33 23.10856 119.46698 34945 ft 506 kts 55°
2026-05-06 06:34 23.14517 119.53231 34945 ft 505 kts 55°
2026-05-06 06:34 23.18518 119.59420 34941 ft 494 kts 38°
2026-05-06 06:34 23.21231 119.61548 34940 ft 481 kts 24°
2026-05-06 06:35 23.24178 119.63294 34963 ft 482 kts 24°
2026-05-06 06:35 23.30072 119.66847 34966 ft 483 kts 25°
2026-05-06 06:35 23.32954 119.68644 34953 ft 471 kts 25°
2026-05-06 06:36 23.35745 119.70409 34945 ft 458 kts 25°
2026-05-06 06:36 23.38447 119.72123 34654 ft 453 kts 25°
2026-05-06 06:36 23.41159 119.73840 34237 ft 449 kts 25°
2026-05-06 06:36 23.43856 119.75545 33781 ft 447 kts 25°
2026-05-06 06:37 23.46539 119.77242 33286 ft 444 kts 26°
2026-05-06 06:37 23.49197 119.78938 32803 ft 442 kts 27°
2026-05-06 06:37 23.51817 119.80701 32347 ft 440 kts 28°
2026-05-06 06:37 23.54363 119.82464 31888 ft 437 kts 28°
2026-05-06 06:38 23.56923 119.84252 31425 ft 435 kts 29°
2026-05-06 06:38 23.59471 119.86031 30976 ft 433 kts 29°
2026-05-06 06:38 23.62005 119.87792 30501 ft 431 kts 29°
2026-05-06 06:38 23.64533 119.89542 30032 ft 430 kts 29°
2026-05-06 06:39 23.67065 119.91291 29482 ft 428 kts 29°
2026-05-06 06:39 23.69571 119.93021 28998 ft 425 kts 29°
2026-05-06 06:39 23.72039 119.94725 28531 ft 422 kts 29°
2026-05-06 06:39 23.74510 119.96431 28064 ft 419 kts 29°
2026-05-06 06:40 23.76965 119.98126 27614 ft 416 kts 29°
2026-05-06 06:40 23.79403 119.99810 27170 ft 413 kts 29°
2026-05-06 06:40 23.81836 120.01492 26730 ft 411 kts 29°
2026-05-06 06:40 23.84244 120.03157 26289 ft 409 kts 29°
2026-05-06 06:41 23.86639 120.04815 25863 ft 406 kts 29°
2026-05-06 06:41 23.89023 120.06465 25433 ft 405 kts 29°
2026-05-06 06:41 23.91394 120.08107 24989 ft 403 kts 30°
2026-05-06 06:41 23.93765 120.09750 24568 ft 402 kts 30°
2026-05-06 06:42 23.96089 120.11361 24138 ft 401 kts 30°
2026-05-06 06:42 23.98446 120.12995 23707 ft 400 kts 30°
2026-05-06 06:42 24.00794 120.14625 23241 ft 399 kts 30°
2026-05-06 06:42 24.03133 120.16249 22779 ft 397 kts 30°
2026-05-06 06:43 24.05459 120.17865 22341 ft 395 kts 30°
2026-05-06 06:43 24.07771 120.19471 21915 ft 392 kts 30°
2026-05-06 06:43 24.10063 120.21064 21495 ft 390 kts 30°
2026-05-06 06:43 24.12349 120.22654 21076 ft 387 kts 30°
2026-05-06 06:44 24.14618 120.24231 20655 ft 385 kts 30°
2026-05-06 06:44 24.16878 120.25804 20247 ft 383 kts 30°
2026-05-06 06:44 24.19122 120.27365 19843 ft 381 kts 30°
2026-05-06 06:44 24.21359 120.28923 19429 ft 379 kts 30°
2026-05-06 06:45 24.23557 120.30456 19012 ft 378 kts 30°
2026-05-06 06:45 24.25777 120.32003 18597 ft 377 kts 30°
2026-05-06 06:45 24.27984 120.33542 18177 ft 375 kts 30°
2026-05-06 06:45 24.30187 120.35079 17726 ft 373 kts 30°
2026-05-06 06:46 24.32368 120.36601 17308 ft 370 kts 30°
2026-05-06 06:46 24.34531 120.38112 16903 ft 367 kts 30°
2026-05-06 06:46 24.36675 120.39610 16509 ft 364 kts 30°
2026-05-06 06:46 24.38775 120.41079 16126 ft 361 kts 30°
2026-05-06 06:47 24.40883 120.42553 15740 ft 358 kts 30°
2026-05-06 06:47 24.42974 120.44015 15357 ft 355 kts 30°
2026-05-06 06:47 24.45047 120.45465 14975 ft 352 kts 30°
2026-05-06 06:47 24.47104 120.46905 14616 ft 349 kts 30°
2026-05-06 06:48 24.49149 120.48338 14235 ft 347 kts 30°
2026-05-06 06:48 24.51172 120.49756 13863 ft 345 kts 30°
2026-05-06 06:48 24.53189 120.51169 13450 ft 342 kts 30°
2026-05-06 06:48 24.55190 120.52572 13068 ft 339 kts 30°
2026-05-06 06:49 24.57166 120.53958 12701 ft 335 kts 30°
2026-05-06 06:49 24.59117 120.55327 12352 ft 332 kts 30°
2026-05-06 06:49 24.61055 120.56688 12002 ft 328 kts 30°
2026-05-06 06:49 24.62948 120.58017 11662 ft 325 kts 30°
2026-05-06 06:50 24.64837 120.59344 11326 ft 321 kts 30°
2026-05-06 06:50 24.66715 120.60663 10995 ft 318 kts 30°
2026-05-06 06:50 24.68513 120.62055 10663 ft 316 kts 38°
2026-05-06 06:50 24.70159 120.63633 10356 ft 312 kts 41°
2026-05-06 06:51 24.71729 120.65233 10216 ft 302 kts 41°
2026-05-06 06:51 24.73224 120.66759 10062 ft 291 kts 41°
2026-05-06 06:51 24.74718 120.68268 9897 ft 286 kts 41°
2026-05-06 06:51 24.76196 120.69744 9610 ft 295 kts 41°
2026-05-06 06:52 24.77742 120.71280 9288 ft 300 kts 40°
2026-05-06 06:52 24.79298 120.72819 8964 ft 299 kts 40°
2026-05-06 06:52 24.80835 120.74337 8644 ft 295 kts 40°
2026-05-06 06:52 24.82352 120.75833 8325 ft 291 kts 40°
2026-05-06 06:53 24.83850 120.77310 8033 ft 286 kts 40°
2026-05-06 06:53 24.85322 120.78761 7735 ft 282 kts 40°
2026-05-06 06:53 24.86774 120.80192 7444 ft 278 kts 41°
2026-05-06 06:53 24.88207 120.81605 7149 ft 274 kts 41°
2026-05-06 06:54 24.89632 120.83010 6881 ft 276 kts 41°
2026-05-06 06:54 24.91012 120.84465 6575 ft 279 kts 52°
2026-05-06 06:54 24.91791 120.86410 6287 ft 281 kts 83°
2026-05-06 06:54 24.91806 120.88540 5998 ft 278 kts 95°
2026-05-06 06:55 24.91687 120.90656 5690 ft 282 kts 95°
2026-05-06 06:55 24.91575 120.92801 5516 ft 276 kts 95°
2026-05-06 06:55 24.91473 120.94872 5373 ft 265 kts 95°
2026-05-06 06:55 24.91377 120.96870 5104 ft 259 kts 95°
2026-05-06 06:56 24.91285 120.98840 4826 ft 254 kts 95°
2026-05-06 06:56 24.91309 121.00732 4523 ft 248 kts 77°
2026-05-06 06:56 24.92084 121.02371 4276 ft 240 kts 49°
2026-05-06 06:56 24.93197 121.03694 4030 ft 231 kts 48°
2026-05-06 06:57 24.94244 121.04994 3801 ft 223 kts 49°
2026-05-06 06:57 24.95257 121.06278 3525 ft 219 kts 49°
2026-05-06 06:57 24.96240 121.07529 3340 ft 210 kts 49°
2026-05-06 06:57 24.97187 121.08735 3042 ft 206 kts 49°
2026-05-06 06:58 24.98101 121.09899 2784 ft 200 kts 49°
2026-05-06 06:58 24.98997 121.11040 2525 ft 192 kts 49°
2026-05-06 06:58 24.99839 121.12112 2323 ft 176 kts 48°
2026-05-06 06:58 25.00608 121.13093 2079 ft 163 kts 48°
2026-05-06 06:59 25.01325 121.14005 1880 ft 151 kts 48°
2026-05-06 06:59 25.01978 121.14835 1685 ft 135 kts 47°
2026-05-06 06:59 25.02617 121.15648 1527 ft 145 kts 47°
2026-05-06 06:59 25.03274 121.16484 1332 ft 141 kts 48°
2026-05-06 07:00 25.03918 121.17307 1116 ft 142 kts 47°
2026-05-06 07:00 25.04569 121.18139 918 ft 142 kts 45°
2026-05-06 07:00 25.05190 121.18924 754 ft 134 kts 46°
2026-05-06 07:00 25.05814 121.19703 607 ft 138 kts 47°
2026-05-06 07:01 25.06453 121.20517 387 ft 140 kts 48°
2026-05-06 07:01 25.07084 121.21324 227 ft 137 kts 49°
2026-05-06 07:01 25.07699 121.22116 106 ft 130 kts 49°
2026-05-06 07:01 25.08203 121.22758 107 ft 85 kts 49°
2026-05-06 07:02 25.08500 121.23136 106 ft 60 kts 49°
2026-05-06 07:02 25.08652 121.23337 107 ft 30 kts 57°
2026-05-06 07:02 25.08717 121.23542 107 ft 18 kts 79°
2026-05-06 07:02 25.08734 121.23647 106 ft 10 kts 80°
2026-05-06 07:03 25.08740 121.23685 107 ft 0 kts 80°
2026-05-06 07:03 25.08743 121.23702 106 ft 12 kts 80°
2026-05-06 07:03 25.08790 121.23827 106 ft 19 kts 53°
2026-05-06 07:03 25.08875 121.23935 107 ft 19 kts 49°
2026-05-06 07:04 25.08959 121.24043 106 ft 19 kts 50°
2026-05-06 07:04 25.09043 121.24151 107 ft 19 kts 49°
2026-05-06 07:04 25.09124 121.24254 107 ft 15 kts 49°
2026-05-06 07:04 25.09172 121.24318 107 ft 7 kts 59°
2026-05-06 07:05 25.09154 121.24370 107 ft 8 kts 133°
2026-05-06 07:05 25.09117 121.24406 106 ft 4 kts 139°
2026-05-06 07:05 25.09105 121.24418 106 ft 1 kts 139°
2026-05-06 07:05 25.09103 121.24420 108 ft 0 kts 139°